COSMOS 571

Satellite information

Favourite Embed

Satellite Type and Status

PAYLOADIN ORBIT

Key statistics

Satellite COSMOS 571 at a glance.

Uptime

19182

Days in orbit

Revolutions

≈ 12.7

Per day

Orbit

LEO

Low Earth Orbit

Inclination

74.0

Latest

Satellite identification and parameters

Extended collection of information and parameters for COSMOS 571.

Object identification

Identified? True

Debris? False

Object name: COSMOS 571

International designator: 1973-037H

Object number (NORAD): 6682

Object ID (CCSDS): 6682

Country: COMMONWEALTH OF INDEPENDENT STATES (CIS)

Current information (Y/N): Y

RCS size: MEDIUM

Orbital parameters

Period: 113.751 minutes

Inclination: 74.0159 deg

SMA: 7776.732 km

Apoapsis: 1478.977 km

Periapsis: 1318.218 km

RAAN: 155.3884 deg

Eccentricy: 0.01033589

Argument of periapsis: 312.5103 deg

Mean anomaly: 120.6837 deg

Mean motion: 12.65922292 rev/day

Mean motion (dot): 0.00000008 rev/day2

B* drag term: 0.0001309778 1/REarth

Two-line elements (TLE)

Creation date: Dec. 14, 2025, 3:07 a.m.

Reference frame: TEME

Reference center: EARTH

Epoch: Dec. 13, 2025, 3:08 p.m. UTC

TLE line 0: 0 COSMOS 571

TLE line 1: 1 06682U 73037H 25347.63111779 .00000008 00000-0 13098-3 0 9990

TLE line 2: 2 06682 74.0159 155.3884 0103359 312.5103 120.6837 12.65922292426818

Live tracking on map

Real-time ground track for satellite COSMOS 571.

In-orbit conjunctions

There are no conjunctions computed for COSMOS 571, at the moment. Check back to stay up to date, as we update our databases every day.

Go to all conjunctions

Associated space launch

Military communications satellites

COSMOS 571 was lifted into orbit during the mission ‘Kosmos-3M | Strela-1M 41-48’, on board a Kosmos-3M space rocket.

The launch took place on June 8, 1973, 3:50 p.m. from 132/1 (132L).

For more information about the launch, click the button.

Launch to space Kosmos-3M | Strela-1M 41-48
Kosmos-3M | Strela-1M 41-48

Agency: N/A

Status: Launch Successful

Launch date: June 8, 1973, 3:50 p.m. UTC

Rocket: Kosmos-3M

Launch pad: 132/1 (132L)

Location: Plesetsk Cosmodrome, Russian Federation

...

Latest news about this satellite

There are no fresh news available about this satellite. Check back as we update our databases every day.


Newsletter sign-up

Weekly statistics, charts and insights to help you stay on top of the space industry.